Louisville Bowman, KY

12:58 AM EST on December 11, 2017 (GMT -0500)
Bowman

Weather History for KLOU - November, 2013

Change the Weather History Date:

Monday, November 11, 2013

  Actual Average Record
Temperature  
Mean Temperature 48 °F 49 °F  
Max Temperature 64 °F 59 °F 77 °F (1949)
Min Temperature 32 °F 40 °F 21 °F (1957)
Degree Days  
Heating Degree Days 17 16  
Month to date heating degree days 166 151  
Since 1 July heating degree days 439 427  
Cooling Degree Days 0 0  
Month to date cooling degree days 0 0  
Year to date cooling degree days 1446 1442  
Moisture  
Dew Point 30 °F    
Average Humidity 54    
Maximum Humidity 89    
Minimum Humidity 18    
Precipitation  
Precipitation 0.02 in 0.10 in 1.71 in (2004)
Month to date precipitation 0.33 1.29  
Year to date precipitation 50.73 39.21  
Sea Level Pressure  
Sea Level Pressure 30.24 in    
Wind  
Wind Speed 4 mph (WSW)    
Max Wind Speed 20 mph    
Max Gust Speed 24 mph    
Visibility 10 miles    
Events Rain    
T = Trace of Precipitation, MM = Missing Value Source: NWS Daily Summary

Daily Weather History Graph

Daily Weather History Graph

Search for Another Location

Airport or City:

Trip Planner

Search our weather history database for the weather conditions in past years. The results will help you decide how hot, cold, wet, or windy it might be!

Date:

Astronomy

Nov. 11, 2013 Rise Set
Actual Time 7:19 AM EST 5:33 PM EST
Civil Twilight 6:51 AM EST 6:01 PM EST
Nautical Twilight 6:20 AM EST 6:32 PM EST
Astronomical Twilight 5:48 AM EST 7:03 PM EST
Moon 2:08 PM EST 1:09 AM EST
Length of Visible Light 11h 09m
Length of Day
10h 13m
Waxing Gibbous, 66% of the Moon is Illuminated
Nov 11
Waxing Gibbous
Nov 17
Full
Nov 25
Last Quarter
Dec 2
New
Dec 9
First Quarter

Hourly Weather History & Observations

Time (EST) Temp. Windchill Dew Point Humidity Pressure Visibility Wind Dir Wind Speed Gust Speed Precip Events Conditions
12:53 AM 35.1 °F - 28.9 °F 78% 30.33 in 10.0 mi Calm Calm - N/A   Clear
1:53 AM 34.0 °F - 28.0 °F 79% 30.32 in 10.0 mi Calm Calm - N/A   Clear
2:53 AM 34.0 °F - 28.9 °F 82% 30.33 in 10.0 mi Calm Calm - N/A   Clear
3:53 AM 35.1 °F - 30.0 °F 82% 30.32 in 10.0 mi Calm Calm - N/A   Clear
4:53 AM 34.0 °F - 30.0 °F 85% 30.32 in 10.0 mi Calm Calm - N/A   Clear
5:53 AM 32.0 °F 27.5 °F 28.9 °F 88% 30.30 in 10.0 mi South 4.6 mph - N/A   Clear
6:53 AM 34.0 °F - 28.0 °F 79% 30.31 in 10.0 mi Calm Calm - N/A   Clear
7:53 AM 34.0 °F - 28.0 °F 79% 30.32 in 10.0 mi Calm Calm - N/A   Clear
8:53 AM 39.0 °F - 30.0 °F 70% 30.32 in 10.0 mi Calm Calm - N/A   Clear
9:53 AM 43.0 °F 41.3 °F 30.0 °F 60% 30.31 in 10.0 mi South 3.5 mph - N/A   Clear
10:53 AM 48.0 °F - 30.0 °F 50% 30.29 in 10.0 mi Variable 3.5 mph - N/A   Clear
11:53 AM 52.0 °F - 30.0 °F 43% 30.25 in 10.0 mi South 4.6 mph - N/A   Clear
12:53 PM 57.0 °F - 30.0 °F 36% 30.22 in 10.0 mi Variable 4.6 mph - N/A   Clear
1:53 PM 62.1 °F - 23.0 °F 22% 30.17 in 10.0 mi SW 9.2 mph - N/A   Clear
2:53 PM 64.0 °F - 19.9 °F 18% 30.15 in 10.0 mi WSW 10.4 mph 18.4 mph N/A   Mostly Cloudy
3:53 PM 62.1 °F - 21.0 °F 21% 30.14 in 10.0 mi WSW 8.1 mph - N/A   Scattered Clouds
4:53 PM 61.0 °F - 21.9 °F 22% 30.13 in 10.0 mi WSW 5.8 mph - N/A   Mostly Cloudy
5:53 PM 60.1 °F - 24.1 °F 25% 30.13 in 10.0 mi WSW 4.6 mph - N/A   Overcast
6:53 PM 59.0 °F - 28.0 °F 31% 30.13 in 10.0 mi WSW 3.5 mph - 0.00 in   Overcast
7:53 PM 57.9 °F - 30.0 °F 35% 30.14 in 10.0 mi Calm Calm - N/A   Overcast
8:53 PM 57.9 °F - 32.0 °F 37% 30.14 in 10.0 mi West 4.6 mph - N/A   Overcast
9:53 PM 57.0 °F - 36.0 °F 45% 30.16 in 10.0 mi NW 13.8 mph 21.9 mph N/A   Overcast
10:53 PM 48.9 °F - 44.1 °F 83% 30.20 in 7.0 mi North 5.8 mph - 0.01 in Rain Light Rain
11:13 PM 46.4 °F 40.1 °F 42.8 °F 87% 30.22 in 9.0 mi NNW 15.0 mph 23.0 mph 0.01 in Rain Light Rain
11:53 PM 44.1 °F 37.4 °F 41.0 °F 89% 30.25 in 9.0 mi North 13.8 mph 23.0 mph 0.01 in Rain Light Rain